Skip Page Navigation
NASA JPL Caltech
NASA Logo - Jet Propulsion Laboratory + View the NASA Portal
+ Center for Near-Earth Object Studies
JPL Home Earth Solar System Stars & Galaxies Technology
JPL Solar System Dynamics
BODIES ORBITS EPHEMERIDES TOOLS PHYSICAL DATA DISCOVERY FAQ SITE MAP
JPL Small-Body Database Browser
Search: [ help ]  
101175 (1998 SO6)
Classification: Main-belt Asteroid          SPK-ID: 2101175
Ephemeris | Orbit Diagram | Orbital Elements | Mission Design | Physical Parameters | Discovery Circumstances ]

[ show orbit diagram ]
Orbital Elements at Epoch 2459000.5 (2020-May-31.0) TDB
Reference: JPL 14 (heliocentric ecliptic J2000)
 Element Value Uncertainty (1-sigma)   Units 
e .01277358669088451 4.8945e-08  
a 2.715747775985268 1.7932e-08 au
q 2.681057936338144 1.28e-07 au
i 4.597388635196012 6.1684e-06 deg
node 334.9495466075696 5.634e-05 deg
peri 239.8540083026326 0.00027014 deg
M 74.55984657625785 0.00026078 deg
tp 2458661.940440766595
(2019-Jun-27.44044077)
0.0011857 TDB
period 1634.679347138526
4.48
1.6191e-05
4.433e-08
d
yr
n .2202266766446721 2.1813e-09 deg/d
Q 2.750437615632393 1.8161e-08 au
  Orbit Determination Parameters
   # obs. used (total)      388  
   data-arc span      8072 days (22.10 yr)  
   first obs. used      1998-09-14  
   last obs. used      2020-10-20  
   planetary ephem.      DE431  
   SB-pert. ephem.      SB431-N16  
   condition code      0  
   norm. resid. RMS      .57324  
   source      ORB  
   producer      Otto Matic  
   solution date      2020-Nov-12 20:02:01  

Additional Information
 Earth MOID = 1.677 au 
 Jupiter MOID = 2.22237 au 
 T_jup = 3.356 
[ show covariance matrix ]

Ephemeris | Orbit Diagram | Orbital Elements | Mission Design | Physical Parameters | Discovery Circumstances ]

Physical Parameter Table
Parameter Symbol Value Units Sigma Reference Notes
absolute magnitude H 15.8   n/a MPO432539  

101175 (1998 SO6)          Discovered 1998-Sep-20 by Spacewatch at Kitt Peak
Reference: 20051019/Numbers.arcLast Updated: 2005-10-26

Alternate Designations
 1998 SO6 = 2001 FK10 
Ephemeris | Orbit Diagram | Orbital Elements | Mission Design | Physical Parameters | Discovery Circumstances ]
ABOUT SSD CREDITS/AWARDS PRIVACY/COPYRIGHT GLOSSARY LINKS
FirstGov 2020-Dec-06 02:47 UT
(server date/time)  
NASA Home Page
Site Manager:   Ryan S. Park
Webmaster  Alan B. Chamberlin